Flag for United Arab Emirates Weather past 2 weeks in Ras al-Khaimah, Ras al-Khaimah, United Arab Emirates

Now
55 °F

Clear.


Feels Like: 55 °F
Forecast: 49 / 77 °F
Wind: 2 mph from Southwest

Location: Ras Al Khaimah International Airport

Current Time: Jan 26, 2015 at 3:25:07 AM

Latest Report: Jan 26, 2015 at 3:00 AM


Visibility: 10 mi

Pressure: 30.18 "Hg

Humidity: 82%

Dew point: 50 °F

Location of Ras al-KhaimahLocation

Historic Weather in Ras al-Khaimah — Graph

°F

Ras al-Khaimah temperature yesterday

Maximum temperature yesterday: 77 °F (at 1:00 PM)
Minimum temperature yesterday: 52 °F (at 6:00 AM)
Average temperature yesterday: 64 °F

Past Weeks' High & Low Weather Summary

 TemperatureHumidityPressure
High81 °F (Jan 17, 2:00 PM)100% (Jan 19, 6:00 AM)30.27 "Hg (Jan 19, 6:00 AM)
Low45 °F (Jan 16, 7:00 AM)26% (Jan 14, 3:00 PM)29.92 "Hg (Jan 19, 2:00 PM)
Average63 °F69%30.11 "Hg
* Reported Jan 11 2:00 AM — Jan 26 2:00 AM, Ras al-Khaimah, Weather by CustomWeather, © 2014

Note: Actual official high and low records may vary slightly from our data, if they occured in-between our weather recording intervals... More about our weather records

Advertising

Ras al-Khaimah weather history for previous 24 hours

 ConditionsComfort  
Time TempWeatherWind HumidityBarometerVisibility
2:00 AM
Jan 26
57 °FClear.3 mph77%30.18 "Hg10 mi
1:00 AM55 °FClear.2 mph88%30.21 "Hg10 mi
12:00 AM57 °FClear.No wind77%30.21 "Hg10 mi
11:00 PM
Jan 25
59 °FClear.3 mph77%30.21 "Hg10 mi
10:00 PM63 °FClear.3 mph68%30.21 "Hg10 mi
9:00 PM63 °FClear.5 mph68%30.21 "Hg10 mi
8:00 PM66 °FClear.2 mph60%30.21 "Hg10 mi
7:00 PM68 °FClear.3 mph56%30.18 "Hg10 mi
6:00 PM70 °FPassing clouds.10 mph50%30.15 "HgN/A
5:00 PM73 °FPassing clouds.14 mph36%30.15 "HgN/A
4:00 PM75 °FPassing clouds.13 mph36%30.15 "HgN/A
3:00 PM75 °FPassing clouds.8 mph41%30.15 "HgN/A
2:00 PM75 °FPassing clouds.10 mph41%30.15 "HgN/A
1:00 PM77 °FPleasantly warm.8 mph36%30.18 "HgN/A
12:00 PM75 °FPassing clouds.3 mph39%30.21 "HgN/A
11:00 AM73 °FSunny.3 mph50%30.21 "Hg10 mi
10:00 AM72 °FSunny.5 mph57%30.24 "Hg10 mi
9:00 AM63 °FPassing clouds.3 mph88%30.21 "Hg4 mi
8:00 AM55 °FFog.3 mph100%30.21 "Hg2 mi
7:00 AM54 °FFog.2 mph100%30.18 "Hg1 mi
6:00 AM52 °FFog.2 mph100%30.18 "Hg1 mi
5:00 AM54 °FFog.No wind100%30.15 "Hg2 mi
4:00 AM54 °FClear.2 mph100%30.15 "Hg4 mi
3:00 AM54 °FClear.2 mph100%30.15 "Hg4 mi
Weather by CustomWeather, © 2014

See weather overviewHow to use our weather pages